Location: Chevoux
(46.3801°N, 4.9476°E)
Time: 22:23:12
(UTC+00:00)

Cosmos 2112 Rocket - Pass Details

Date: 28 January 2021
Orbit: 757 x 786 km, 74.1° (Epoch: 04 March)

Event Time Altitude Azimuth Distance (km) Brightness Sun altitude
Rises 17:30:21 0° 337° (NNW) 3,244 7.3 -9.1°
Reaches altitude 10° 17:32:45 10° 336° (NNW) 2,310 6.6 -9.5°
Maximum altitude 17:37:59 78° 251° (WSW) 781 4.2 -10.4°
Drops below altitude 10° 17:43:09 10° 165° (SSE) 2,280 6.5 -11.2°
Sets 17:45:30 0° 164° (SSE) 3,200 7.2 -11.6°
